Back to catalog

STARLINK-32178

AliveCommunicationsVLEO
NORAD 60413·PAYLOAD·🇺🇸 United States

Launched Aug 10, 2024 from Cape Canaveral Space Force Station

Loading…

Next Passes (next 24 hours)

TLE

FreshSource: CelesTrak SupGP

Epoch: Sep 15, 2026, 02:10 UTC

1 60413C 24141R   26258.09076389 -.00009465  00000+0 -27959-3 0  2589
2 60413  53.1566  78.6626 0001262  93.3593  51.8236 15.34402750    17

Track STARLINK-32178 in real time with AllMySat

Download on the App Store